This is the latest recevied weather packets stored in our database for station/object KE0LFX. If no packets are shown the sender has not sent any weather packets the latest 10 day(s).
| Time | Temp. | Humidity | Pressure | Rain* | Wind** | Luminosity | Snow |
|---|---|---|---|---|---|---|---|
| 1777913618 | 25° C | 40% | 1004.4 hPa | 0 mm | - | 86 W/m² | - |
| 1777913314 | 24.44° C | 43% | 1004.1 hPa | 0 mm | - | 104 W/m² | - |
| 1777913011 | 24.44° C | 42% | 1004.2 hPa | 0 mm | - | 117 W/m² | - |
| 1777912707 | 23.89° C | 44% | 1004.2 hPa | 0 mm | - | 190 W/m² | - |
| 1777912403 | 23.89° C | 45% | 1004.3 hPa | 0 mm | - | 77 W/m² | - |
| 1777912099 | 23.89° C | 45% | 1004.5 hPa | 0 mm | - | 101 W/m² | - |
| 1777911795 | 23.89° C | 45% | 1004.3 hPa | 0 mm | - | 72 W/m² | - |
| 1777911492 | 23.89° C | 46% | 1004.6 hPa | 0 mm | - | 72 W/m² | - |
| 1777911189 | 22.78° C | 48% | 1004.5 hPa | 0 mm | - | 83 W/m² | - |
| 1777910887 | 23.33° C | 47% | 1004.6 hPa | 0 mm | - | 75 W/m² | - |
| 1777910583 | 22.78° C | 48% | 1004.6 hPa | 0 mm | - | 74 W/m² | - |
| 1777910280 | 22.78° C | 48% | 1004.8 hPa | 0 mm | - | 82 W/m² | - |
| 1777909977 | 22.22° C | 49% | 1004.8 hPa | 0 mm | - | 67 W/m² | - |
| 1777909674 | 21.67° C | 49% | 1004.8 hPa | 0 mm | - | 65 W/m² | - |
| 1777909371 | 21.67° C | 49% | 1004.6 hPa | 0 mm | - | 92 W/m² | - |
| 1777909069 | 21.67° C | 51% | 1004.8 hPa | 0 mm | - | 65 W/m² | - |
| 1777908767 | 21.11° C | 51% | 1005.1 hPa | 0 mm | - | 96 W/m² | - |
| 1777908464 | 20.56° C | 51% | 1005.1 hPa | 0 mm | - | 61 W/m² | - |
| 1777908160 | 20.56° C | 53% | 1005.2 hPa | 0 mm | - | 76 W/m² | - |
| 1777907856 | 20.56° C | 51% | 1005.2 hPa | 0 mm | - | 72 W/m² | - |
| 1777907552 | 20.56° C | 52% | 1005.3 hPa | 0 mm | - | 71 W/m² | - |
| 1777907248 | 20° C | 51% | 1005.5 hPa | 0 mm | - | 64 W/m² | - |
| 1777906945 | 20° C | 51% | 1005.3 hPa | 0 mm | - | 137 W/m² | - |
| 1777906643 | 20° C | 52% | 1005.7 hPa | 0 mm | - | 173 W/m² | - |
| 1777906339 | 19.44° C | 52% | 1005.5 hPa | 0 mm | - | 95 W/m² | - |
* Rain latest hour (hover to see other rain measurements)
** Current wind speed in m/s (hover to see current wind gust speed)